Regional Weather Roundup
Issued by NWS

Home | Current Version | Previous Version | Text Only | Print | Product List | Glossary On
Versions: 1 2 3 4 5 6 7 8 9 10 11 12 13 14 15 16 17 18 19 20 21 22 23 24 25 26 27 28 29 30 31 32 33 34 35 36 37 38 39 40 41 42 43 44 45 46 47 48 49 50
000
ASUS43 KBIS 292102
RWRND

NORTH DAKOTA REGIONAL WEATHER ROUNDUP
NATIONAL WEATHER SERVICE BISMARCK ND
400 PM CDT FRI MAY 29 2015

NOTE: "FAIR" INDICATES FEW OR NO CLOUDS BELOW 12,000 FEET WITH NO
SIGNIFICANT WEATHER AND/OR OBSTRUCTIONS TO VISIBILITY.


NDZ001>003-009>011-017-292200-
NORTHWEST NORTH DAKOTA

CITY           SKY/WX    TMP DP  RH WIND       PRES   REMARKS
WILLISTON      SUNNY     58  32  37 NE13      30.29F
MINOT          MOSUNNY   54  33  45 NW12G22   30.27F
MINOT AFB      SUNNY     57  35  43 N9        30.26F
$$

NDZ018>021-031>035-040>046-292200-
SOUTHWEST NORTH DAKOTA

CITY           SKY/WX    TMP DP  RH WIND       PRES   REMARKS
BISMARCK       PTSUNNY   55  35  47 N14G23    30.26S
DICKINSON        N/A    N/A N/A N/A MISG      30.26F
GARRISON         N/A     53  34  48 N8G22     30.27F
HETTINGER ARPT PTSUNNY   53  36  52 N12G18    30.28F
$$

NDZ004>008-012>016-024-026-027-054-292200-
NORTHEAST NORTH DAKOTA

CITY           SKY/WX    TMP DP  RH WIND       PRES   REMARKS
GRAND FORKS    MOSUNNY   55  38  52 N26G32    30.18S
GRND FRKS AFB  MOSUNNY   55  37  50 N23G35    30.19S
DEVILS LAKE    SUNNY     54  32  43 N21G29    30.22S
$$

NDZ022-023-025-028>030-036>039-047>053-292200-
SOUTHEAST NORTH DAKOTA

CITY           SKY/WX    TMP DP  RH WIND       PRES   REMARKS
FARGO          PTSUNNY   55  42  61 N22G30    30.14F
JAMESTOWN      MOSUNNY   57  40  52 N24       30.18S
$$



USA.gov is the U.S. government's official web portal to all federal, state and local government web resources and services.